Simultaneous Nadir Overpasses (SNOs) Predictions

Prediction of SNOs between METOP-B and NOAA-19 Satellite Orbit:

Table of predicted SNOs for the next 14.0 days since TLE Epoch: 11/4/2023
Index Date (METOP-B) Time (METOP-B) Lat,Lon (METOP-B) SZA (METOP-B ) Date (NOAA-19) Time (NOAA-19) Lat,Lon (NOAA-19) SZA (NOAA-19 ) Distance(km) Time Diff (sec)
1 11/09/2023 18:29:58 -80.69, 111.93 80.94 11/09/2023 18:28:54 -80.69, 112.05 80.94 2.23 64
2 11/09/2023 19:20:38 80.70, -80.60 99.10 11/09/2023 19:19:58 80.70, -80.58 99.09 0.69 40
3 11/09/2023 20:11:19 -80.70, 86.78 80.89 11/09/2023 20:10:52 -80.70, 86.80 80.89 0.62 27
4 11/09/2023 21:01:58 80.73,-105.41 99.19 11/09/2023 21:01:55 80.72,-105.47 99.18 1.26 3
5 11/09/2023 21:52:39 -80.73, 61.97 80.80 11/09/2023 21:52:49 -80.73, 61.90 80.80 1.40 10
6 11/09/2023 22:43:19 80.74,-130.57 99.24 11/09/2023 22:43:53 80.73,-130.72 99.23 2.95 34
7 11/09/2023 23:34:00 -80.74, 36.81 80.75 11/09/2023 23:34:47 -80.73, 36.65 80.75 3.14 47



Historial Predications of SNOs between METOP-B and NOAA-19
